This demonstration page uses our WeatherBlox Daily Observations layout. Learn more.

Left ArrowRight Arrow

31.31129, -92.44514

Hourly Observations for December 31, 2015

Temp ( °F °C ) Dew Point ( °F °C ) Humidity (%) Winds ( mph kmh ) Pressure ( in mb ) Visibility ( mi km ) Precip ( " mm )
12:53 am 00:53 Cloudy 49 9.4 43 6.1 80 80 N 10 17 30.23 1024 10 16 0.00 0.00
1:53 am 01:53 Cloudy 48 8.9 42 5.6 80 80 N 10 17 30.24 1024 10 16 0.00 0.00
2:10 am 02:10 Cloudy 47 8.3 42 5.6 83 83 N 8 13 30.21 1023 10 16 0.00 0.00
2:53 am 02:53 Cloudy 46 7.8 41 5 83 83 N 12 19 30.24 1024 10 16 0.00 0.00
3:16 am 03:16 Cloudy 46 7.8 41 5 83 83 NNE 9 15 30.24 1024 10 16 0.00 0.00
3:53 am 03:53 Cloudy 46 7.8 40 4.4 79 79 N 8 13 30.25 1024 10 16 0.00 0.00
4:53 am 04:53 Clear 44 6.7 39 3.9 83 83 NNE 6 9 30.25 1025 10 16 0.00 0.00
5:53 am 05:53 Clear 43 6.1 39 3.9 86 86 N 10 17 30.26 1025 10 16 0.00 0.00
6:24 am 06:24 Mostly Cloudy 43 6.1 39 3.9 86 86 N 8 13 30.27 1025 10 16 0.00 0.00
6:53 am 06:53 Cloudy 43 6.1 39 3.9 86 86 NNE 8 13 30.28 1025 10 16 0.00 0.00
7:45 am 07:45 Mostly Sunny 43 6.1 39 3.9 86 86 N 8 13 30.27 1025 10 16 0.00 0.00
7:53 am 07:53 Partly Cloudy 43 6.1 39 3.9 86 86 N 9 15 30.28 1025 10 16 0.00 0.00
8:53 am 08:53 Mostly Cloudy 45 7.2 38 3.3 77 77 NNE 9 15 30.31 1026 10 16 0.00 0.00
9:53 am 09:53 Cloudy 48 8.9 36 2.2 63 63 NNE 10 17 30.31 1027 10 16 0.00 0.00
10:53 am 10:53 Cloudy 49 9.4 36 2.2 61 61 N 12 19 30.31 1026 10 16 0.00 0.00
11:53 am 11:53 Cloudy 52 11.1 34 1.1 50 50 NE 9 15 30.27 1025 10 16 0.00 0.00
12:53 pm 12:53 Cloudy 53 11.7 36 2.2 52 52 ENE 10 17 30.24 1024 10 16 0.00 0.00
1:53 pm 13:53 Cloudy 54 12.2 36 2.2 51 51 NNE 14 22 30.24 1024 10 16 0.00 0.00
2:53 pm 14:53 Cloudy 53 11.7 37 2.8 55 55 NE 14 22 30.25 1024 10 16 0.00 0.00
3:53 pm 15:53 Cloudy 53 11.7 36 2.2 52 52 NNE 10 17 30.27 1025 10 16 0.00 0.00
4:53 pm 16:53 Mostly Cloudy 52 11.1 37 2.8 57 57 NNE 8 13 30.28 1025 10 16 0.00 0.00
5:53 pm 17:53 Mostly Cloudy 50 10 37 2.8 61 61 N 12 19 30.29 1026 10 16 0.00 0.00
6:53 pm 18:53 Partly Cloudy 49 9.4 36 2.2 61 61 NNE 13 20 30.29 1026 10 16 0.00 0.00
7:53 pm 19:53 Clear 48 8.9 35 1.7 61 61 NE 9 15 30.31 1026 10 16 0.00 0.00
8:53 pm 20:53 Mostly Cloudy 47 8.3 36 2.2 66 66 NNE 8 13 30.33 1027 10 16 0.00 0.00
9:53 pm 21:53 Mostly Cloudy 47 8.3 37 2.8 69 69 NNE 9 15 30.32 1027 10 16 0.00 0.00
10:53 pm 22:53 Cloudy 47 8.3 36 2.2 66 66 N 10 17 30.33 1027 10 16 0.00 0.00
11:53 pm 23:53 Cloudy with Light Rain 46 7.8 37 2.8 71 71 N 14 22 30.35 1028 10 16 0.00 0.03

Powered by AerisWeather